When you browse on this site, cookies collect data to enhance your experience and personalize the content and advertising you see.
Visit our Privacy Policy to learn more. By continuing to use the site, you agree to this use of cookies and data.
  • In France
  • List of Countries
  • For 7 days
  • Water Temperature
  • Satellite Maps
  • Weather Map
  • Weather Widgets
  • user-avatar
    Login

    Hourly Weather Bulembu

    Today, 22 July, Monday

    Time Temperature Precipitation Wind Pressure Humidity
    00:00 +3°C° 0 mm 1 mps 658 mmHg 63%
    01:00 +3°C° 0 mm 1 mps 658 mmHg 65%
    02:00 +2°C° 0 mm 1 mps 657 mmHg 67%
    03:00 +1°C° 0 mm 2 mps 657 mmHg 69%
    04:00 +1°C° 0 mm 2 mps 657 mmHg 71%
    05:00 +1°C° 0 mm 2 mps 656 mmHg 73%
    06:00 +2°C° 0 mm 2 mps 656 mmHg 67%
    07:00 +3°C° 0 mm 2 mps 657 mmHg 61%
    08:00 +5°C° 0 mm 2 mps 657 mmHg 55%
    09:00 +8°C° 0 mm 2 mps 658 mmHg 46%
    10:00 +13°C° 0 mm 2 mps 658 mmHg 36%
    11:00 +17°C° 0 mm 2 mps 659 mmHg 27%
    12:00 +19°C° 0 mm 2 mps 658 mmHg 24%
    13:00 +20°C° 0 mm 2 mps 658 mmHg 20%
    14:00 +22°C° 0 mm 3 mps 657 mmHg 17%
    15:00 +20°C° 0 mm 2 mps 656 mmHg 20%
    16:00 +18°C° 0 mm 2 mps 656 mmHg 24%
    17:00 +17°C° 0 mm 2 mps 655 mmHg 28%
    18:00 +14°C° 0 mm 2 mps 655 mmHg 32%
    19:00 +12°C° 0 mm 2 mps 654 mmHg 37%
    20:00 +9°C° 0 mm 2 mps 654 mmHg 42%
    21:00 +8°C° 0 mm 2 mps 654 mmHg 43%
    22:00 +8°C° 0 mm 2 mps 654 mmHg 45%
    23:00 +7°C° 0 mm 2 mps 653 mmHg 46%

    Tomorrow, 23 July, Tuesday

    Time Temperature Precipitation Wind Pressure Humidity
    00:00 +7°C° 0 mm 2 mps 653 mmHg 46%
    01:00 +6°C° 0 mm 2 mps 652 mmHg 47%
    02:00 +6°C° 0 mm 2 mps 652 mmHg 47%
    03:00 +6°C° 0 mm 2 mps 652 mmHg 47%
    04:00 +5°C° 0 mm 2 mps 652 mmHg 47%
    05:00 +5°C° 0 mm 2 mps 652 mmHg 48%
    06:00 +7°C° 0 mm 2 mps 652 mmHg 45%
    07:00 +8°C° 0 mm 2 mps 653 mmHg 42%
    08:00 +9°C° 0 mm 2 mps 653 mmHg 39%
    09:00 +14°C° 0 mm 2 mps 654 mmHg 31%
    10:00 +18°C° 0 mm 2 mps 655 mmHg 24%
    11:00 +23°C° 0 mm 1 mps 656 mmHg 16%
    12:00 +24°C° 0 mm 2 mps 655 mmHg 14%
    13:00 +25°C° 0 mm 2 mps 655 mmHg 12%
    14:00 +27°C° 0 mm 2 mps 654 mmHg 10%
    15:00 +25°C° 0 mm 2 mps 653 mmHg 13%
    16:00 +23°C° 0 mm 2 mps 653 mmHg 15%
    17:00 +20°C° 0 mm 2 mps 652 mmHg 17%
    18:00 +17°C° 0 mm 2 mps 652 mmHg 21%
    19:00 +15°C° 0 mm 2 mps 651 mmHg 24%
    20:00 +12°C° 0 mm 2 mps 651 mmHg 27%
    21:00 +12°C° 0 mm 2 mps 651 mmHg 28%
    22:00 +10°C° 0 mm 2 mps 651 mmHg 30%
    23:00 +9°C° 0 mm 2 mps 651 mmHg 31%

    Day after tomorrow, 24 July, Wednesday

    Time Temperature Precipitation Wind Pressure Humidity
    00:00 +9°C° 0 mm 2 mps 650 mmHg 32%
    01:00 +9°C° 0 mm 2 mps 649 mmHg 34%
    02:00 +8°C° 0 mm 2 mps 649 mmHg 35%
    03:00 +8°C° 0 mm 2 mps 649 mmHg 34%
    04:00 +8°C° 0 mm 2 mps 649 mmHg 33%
    05:00 +8°C° 0 mm 2 mps 649 mmHg 32%
    06:00 +10°C° 0 mm 2 mps 650 mmHg 30%
    07:00 +13°C° 0 mm 2 mps 651 mmHg 27%
    08:00 +14°C° 0 mm 2 mps 652 mmHg 24%
    09:00 +18°C° 0 mm 3 mps 653 mmHg 20%
    10:00 +21°C° 0 mm 4 mps 655 mmHg 15%
    11:00 +25°C° 0 mm 5 mps 656 mmHg 11%
    12:00 +26°C° 0 mm 4 mps 656 mmHg 9%
    13:00 +27°C° 0 mm 3 mps 656 mmHg 7%
    14:00 +28°C° 0 mm 3 mps 656 mmHg 5%
    15:00 +25°C° 0 mm 3 mps 656 mmHg 13%
    16:00 +21°C° 0 mm 3 mps 655 mmHg 21%
    17:00 +18°C° 0 mm 3 mps 655 mmHg 29%
    18:00 +14°C° 0 mm 3 mps 656 mmHg 44%
    19:00 +12°C° 0 mm 2 mps 656 mmHg 59%
    20:00 +8°C° 0 mm 2 mps 656 mmHg 75%
    21:00 +8°C° 0 mm 2 mps 656 mmHg 75%
    22:00 +8°C° 0 mm 1 mps 657 mmHg 75%
    23:00 +7°C° 0 mm 1 mps 657 mmHg 75%

    25 July, Thursday

    Time Temperature Precipitation Wind Pressure Humidity
    00:00 +7°C° 0 mm 1 mps 657 mmHg 76%
    01:00 +6°C° 0 mm 1 mps 657 mmHg 77%
    02:00 +6°C° 0 mm 1 mps 656 mmHg 78%
    03:00 +5°C° 0 mm 0 mps 656 mmHg 80%
    04:00 +4°C° 0 mm 0 mps 656 mmHg 82%
    05:00 +4°C° 0 mm 0 mps 657 mmHg 83%
    06:00 +6°C° 0 mm 1 mps 657 mmHg 79%
    07:00 +7°C° 0 mm 1 mps 657 mmHg 74%
    08:00 +8°C° 0 mm 1 mps 658 mmHg 70%
    09:00 +11°C° 0 mm 1 mps 658 mmHg 60%
    10:00 +14°C° 0 mm 2 mps 659 mmHg 50%
    11:00 +17°C° 0 mm 2 mps 659 mmHg 40%
    12:00 +18°C° 0 mm 2 mps 658 mmHg 37%
    13:00 +19°C° 0 mm 2 mps 658 mmHg 33%
    14:00 +21°C° 0 mm 3 mps 657 mmHg 30%
    15:00 +20°C° 0 mm 2 mps 657 mmHg 34%
    16:00 +18°C° 0 mm 2 mps 656 mmHg 38%
    17:00 +17°C° 0 mm 2 mps 656 mmHg 43%
    18:00 +15°C° 0 mm 2 mps 656 mmHg 50%
    19:00 +13°C° 0 mm 2 mps 655 mmHg 57%
    20:00 +11°C° 0 mm 1 mps 655 mmHg 65%
    21:00 +9°C° 0 mm 2 mps 655 mmHg 61%
    22:00 +9°C° 0 mm 2 mps 655 mmHg 58%
    23:00 +9°C° 0 mm 2 mps 655 mmHg 54%

    26 July, Friday

    Time Temperature Precipitation Wind Pressure Humidity
    00:00 +8°C° 0 mm 2 mps 655 mmHg 48%
    01:00 +8°C° 0 mm 2 mps 655 mmHg 42%
    02:00 +8°C° 0 mm 2 mps 654 mmHg 36%
    03:00 +7°C° 0 mm 2 mps 654 mmHg 34%
    04:00 +7°C° 0 mm 2 mps 655 mmHg 32%
    05:00 +7°C° 0 mm 2 mps 655 mmHg 31%
    06:00 +8°C° 0 mm 2 mps 655 mmHg 29%
    07:00 +10°C° 0 mm 2 mps 656 mmHg 27%
    08:00 +12°C° 0 mm 2 mps 657 mmHg 26%
    09:00 +16°C° 0 mm 2 mps 658 mmHg 21%
    10:00 +21°C° 0 mm 1 mps 659 mmHg 15%
    11:00 +25°C° 0 mm 1 mps 660 mmHg 10%
    12:00 +25°C° 0 mm 2 mps 660 mmHg 10%
    13:00 +25°C° 0 mm 2 mps 660 mmHg 10%
    14:00 +25°C° 0 mm 3 mps 659 mmHg 10%
    15:00 +22°C° 0 mm 3 mps 659 mmHg 15%
    16:00 +20°C° 0 mm 3 mps 659 mmHg 19%
    17:00 +18°C° 0 mm 2 mps 658 mmHg 24%
    18:00 +15°C° 0 mm 2 mps 658 mmHg 38%
    19:00 +13°C° 0 mm 1 mps 658 mmHg 52%
    20:00 +10°C° 0 mm 1 mps 658 mmHg 66%
    21:00 +10°C° 0 mm 1 mps 658 mmHg 73%
    22:00 +10°C° 0 mm 1 mps 658 mmHg 80%
    23:00 +10°C° 0 mm 1 mps 658 mmHg 87%

    27 July, Saturday

    Time Temperature Precipitation Wind Pressure Humidity
    00:00 +10°C° 0 mm 1 mps 658 mmHg 88%
    01:00 +9°C° 0 mm 1 mps 658 mmHg 88%
    02:00 +9°C° 0 mm 1 mps 658 mmHg 88%
    03:00 +9°C° 0 mm 1 mps 658 mmHg 89%
    04:00 +8°C° 0 mm 0 mps 658 mmHg 89%
    05:00 +7°C° 0 mm 0 mps 658 mmHg 89%
    06:00 +8°C° 0 mm 0 mps 658 mmHg 85%
    07:00 +9°C° 0 mm 0 mps 659 mmHg 81%
    08:00 +10°C° 0 mm 0 mps 659 mmHg 77%
    09:00 +13°C° 0 mm 0 mps 660 mmHg 65%
    10:00 +16°C° 0 mm 0 mps 660 mmHg 52%
    11:00 +19°C° 0 mm 0 mps 661 mmHg 40%
    12:00 +21°C° 0 mm 1 mps 660 mmHg 37%
    13:00 +21°C° 0 mm 2 mps 660 mmHg 33%
    14:00 +21°C° 0 mm 2 mps 659 mmHg 30%
    15:00 +20°C° 0 mm 2 mps 658 mmHg 34%
    16:00 +18°C° 0 mm 2 mps 658 mmHg 38%
    17:00 +17°C° 0 mm 2 mps 657 mmHg 42%
    18:00 +15°C° 0 mm 1 mps 657 mmHg 52%
    19:00 +12°C° 0 mm 1 mps 657 mmHg 62%
    20:00 +10°C° 0 mm 1 mps 656 mmHg 72%
    21:00 +9°C° 0 mm 1 mps 656 mmHg 76%
    22:00 +8°C° 0 mm 0 mps 656 mmHg 81%
    23:00 +7°C° 0 mm 0 mps 656 mmHg 85%
    Show more